QPF
0.00 0.00 0.00 0.01 0.01 0.00 0.01 0.01 0.02 0.01 0.02 0.01 0.00 0.01 0.01 0.02 0.02 0.02 0.01 0.01 0.01 0.01 0.01 0.01 0.01 0.01 0.02 0.02 0.01 0.00 0.00 0.00 0.00 0.00 0.02 0.02 0.02 0.02 0.01 0.01 0.01 0.01 0.01 0.01
0.00 0.00 0.00 0.01 0.00 0.00 0.00 0.00 0.01 0.01 0.01 0.01 0.01 0.01 0.01 0.01 0.02 0.03 0.02 0.01 0.01 0.01 0.01 0.01 0.01 0.01 0.00 0.01 0.01 0.00 0.00 0.00 0.00 0.00 0.01 0.01 0.01 0.02 0.02 0.02 0.02 0.01 0.01 0.01
0.00 0.00 0.00 0.00 0.00 0.00 0.00 0.00 0.00 0.00 0.00 0.00 0.01 0.01 0.01 0.01 0.01 0.01 0.02 0.02 0.02 0.02 0.01 0.01 0.01 0.00 0.00 0.00 0.00 0.00 0.00 0.00 0.00 0.01 0.01 0.01 0.01 0.01 0.02 0.02 0.01 0.01 0.01 0.01
0.00 0.00 0.01 0.00 0.00 0.00 0.00 0.00 0.00 0.00 0.00 0.00 0.01 0.00 0.00 0.01 0.01 0.00 0.01 0.03 0.02 0.02 0.01 0.01 0.00 0.00 0.00 0.00 0.00 0.00 0.00 0.00 0.00 0.01 0.02 0.02 0.02 0.02 0.02 0.03 0.02 0.01 0.01 0.01
0.00 0.00 0.01 0.00 0.00 0.00 0.00 0.00 0.00 0.00 0.00 0.00 0.00 0.01 0.01 0.01 0.01 0.01 0.01 0.01 0.02 0.02 0.01 0.01 0.01 0.01 0.01 0.00 0.00 0.01 0.00 0.00 0.00 0.01 0.01 0.02 0.02 0.02 0.02 0.03 0.03 0.02 0.03 0.03
0.01 0.01 0.01 0.00 0.00 0.00 0.01 0.01 0.00 0.00 0.00 0.00 0.00 0.01 0.00 0.00 0.01 0.01 0.01 0.01 0.02 0.02 0.01 0.01 0.01 0.01 0.01 0.00 0.00 0.01 0.01 0.01 0.01 0.01 0.01 0.01 0.01 0.01 0.02 0.02 0.03 0.04 0.04 0.05
0.00 0.01 0.01 0.00 0.00 0.00 0.01 0.00 0.00 0.00 0.00 0.01 0.01 0.01 0.01 0.00 0.00 0.01 0.01 0.01 0.02 0.02 0.02 0.01 0.01 0.01 0.00 0.00 0.00 0.00 0.01 0.01 0.01 0.01 0.00 0.00 0.01 0.01 0.01 0.02 0.02 0.03 0.04 0.06
0.01 0.01 0.00 0.00 0.00 0.00 0.00 0.00 0.01 0.00 0.00 0.00 0.00 0.01 0.01 0.00 0.00 0.01 0.01 0.01 0.02 0.02 0.02 0.01 0.01 0.01 0.00 0.00 0.00 0.01 0.01 0.01 0.01 0.01 0.00 0.00 0.00 0.01 0.01 0.01 0.01 0.02 0.03 0.05
0.01 0.01 0.00 0.00 0.00 0.00 0.00 0.00 0.00 0.00 0.00 0.00 0.00 0.00 0.00 0.00 0.00 0.01 0.02 0.02 0.02 0.02 0.02 0.02 0.01 0.01 0.00 0.01 0.01 0.01 0.02 0.02 0.02 0.01 0.01 0.00 0.00 0.00 0.01 0.01 0.01 0.01 0.01 0.01
0.01 0.01 0.00 0.00 0.00 0.00 0.00 0.00 0.00 0.00 0.00 0.00 0.00 0.00 0.00 0.00 0.00 0.02 0.04 0.02 0.02 0.02 0.02 0.02 0.02 0.01 0.00 0.00 0.01 0.01 0.01 0.02 0.02 0.02 0.02 0.02 0.02 0.02 0.02 0.02 0.01 0.01 0.01 0.01
0.01 0.01 0.00 0.00 0.00 0.00 0.00 0.00 0.00 0.00 0.00 0.00 0.00 0.00 0.00 0.00 0.00 0.01 0.05 0.05 0.03 0.03 0.03 0.03 0.03 0.02 0.01 0.00 0.00 0.01 0.01 0.01 0.02 0.02 0.03 0.04 0.04 0.04 0.04 0.04 0.03 0.02 0.02 0.02
0.01 0.01 0.01 0.01 0.01 0.01 0.00 0.00 0.00 0.00 0.00 0.00 0.00 0.00 0.01 0.01 0.01 0.02 0.03 0.04 0.04 0.04 0.03 0.02 0.02 0.01 0.01 0.01 0.00 0.01 0.01 0.01 0.01 0.01 0.02 0.03 0.03 0.03 0.03 0.02 0.02 0.02 0.02 0.02
0.01 0.01 0.01 0.01 0.01 0.01 0.00 0.00 0.00 0.00 0.00 0.01 0.01 0.01 0.02 0.02 0.02 0.03 0.03 0.03 0.03 0.03 0.02 0.02 0.02 0.01 0.01 0.01 0.01 0.01 0.01 0.01 0.01 0.01 0.02 0.02 0.03 0.02 0.02 0.02 0.02 0.02 0.01 0.01
0.00 0.00 0.01 0.01 0.01 0.01 0.00 0.00 0.00 0.00 0.01 0.01 0.02 0.03 0.03 0.03 0.03 0.04 0.03 0.02 0.02 0.02 0.02 0.02 0.01 0.01 0.01 0.01 0.02 0.02 0.01 0.01 0.01 0.01 0.01 0.01 0.01 0.01 0.01 0.01 0.01 0.01 0.02 0.02
0.00 0.00 0.00 0.01 0.01 0.01 0.01 0.00 0.00 0.00 0.01 0.02 0.04 0.05 0.05 0.04 0.05 0.05 0.04 0.04 0.02 0.01 0.01 0.01 0.00 0.00 0.00 0.01 0.01 0.01 0.02 0.02 0.02 0.01 0.01 0.01 0.01 0.01 0.01 0.01 0.01 0.01 0.01 0.01
0.01 0.01 0.00 0.00 0.01 0.01 0.01 0.01 0.01 0.00 0.01 0.02 0.03 0.06 0.06 0.05 0.04 0.05 0.06 0.06 0.04 0.03 0.01 0.01 0.00 0.00 0.00 0.00 0.00 0.00 0.01 0.02 0.02 0.03 0.02 0.02 0.02 0.01 0.01 0.01 0.01 0.01 0.01 0.01
0.01 0.01 0.00 0.00 0.00 0.00 0.01 0.01 0.01 0.01 0.01 0.01 0.01 0.03 0.05 0.05 0.04 0.03 0.04 0.05 0.04 0.02 0.02 0.01 0.01 0.00 0.00 0.00 0.00 0.00 0.01 0.01 0.01 0.02 0.03 0.02 0.02 0.02 0.01 0.01 0.01 0.01 0.02 0.02
0.00 0.01 0.00 0.00 0.00 0.00 0.01 0.01 0.01 0.01 0.01 0.01 0.01 0.02 0.03 0.04 0.04 0.03 0.03 0.03 0.03 0.02 0.02 0.02 0.02 0.01 0.01 0.01 0.01 0.00 0.00 0.01 0.01 0.01 0.02 0.02 0.02 0.03 0.02 0.01 0.01 0.01 0.02 0.02
0.00 0.00 0.00 0.00 0.00 0.00 0.00 0.01 0.01 0.00 0.01 0.01 0.01 0.01 0.01 0.02 0.02 0.02 0.02 0.01 0.01 0.01 0.01 0.01 0.01 0.01 0.02 0.02 0.01 0.01 0.01 0.01 0.01 0.01 0.01 0.02 0.02 0.02 0.03 0.03 0.02 0.02 0.02 0.02
0.00 0.00 0.00 0.00 0.00 0.01 0.01 0.01 0.01 0.01 0.00 0.00 0.01 0.00 0.01 0.01 0.01 0.01 0.01 0.01 0.01 0.00 0.00 0.00 0.00 0.01 0.01 0.01 0.02 0.02 0.02 0.02 0.02 0.01 0.01 0.01 0.01 0.01 0.02 0.02 0.03 0.03 0.03 0.02
0.00 0.00 0.00 0.00 0.00 0.01 0.01 0.01 0.00 0.00 0.00 0.00 0.00 0.00 0.00 0.00 0.00 0.00 0.01 0.01 0.01 0.00 0.00 0.00 0.00 0.00 0.00 0.01 0.01 0.01 0.01 0.01 0.01 0.01 0.01 0.01 0.01 0.01 0.01 0.01 0.01 0.02 0.02 0.02
0.00 0.00 0.00 0.00 0.01 0.01 0.01 0.00 0.00 0.00 0.00 0.00 0.00 0.00 0.00 0.00 0.00 0.00 0.00 0.00 0.01 0.00 0.00 0.00 0.00 0.01 0.01 0.01 0.01 0.01 0.01 0.01 0.01 0.01 0.02 0.02 0.02 0.01 0.01 0.01 0.01 0.01 0.01 0.01
0.00 0.00 0.00 0.01 0.01 0.01 0.01 0.01 0.00 0.00 0.00 0.00 0.00 0.00 0.00 0.00 0.00 0.00 0.01 0.01 0.01 0.01 0.00 0.00 0.01 0.01 0.01 0.00 0.00 0.00 0.01 0.01 0.01 0.01 0.01 0.02 0.03 0.02 0.02 0.02 0.01 0.01 0.01 0.01
0.00 0.01 0.01 0.01 0.01 0.01 0.01 0.01 0.01 0.01 0.01 0.00 0.00 0.00 0.00 0.00 0.00 0.00 0.01 0.00 0.00 0.00 0.01 0.01 0.01 0.01 0.00 0.00 0.00 0.01 0.01 0.01 0.02 0.01 0.01 0.02 0.02 0.02 0.02 0.02 0.02 0.02 0.02 0.02
0.01 0.01 0.01 0.01 0.01 0.01 0.01 0.01 0.01 0.01 0.01 0.01 0.01 0.01 0.00 0.00 0.01 0.01 0.01 0.01 0.01 0.00 0.00 0.01 0.00 0.00 0.00 0.00 0.01 0.01 0.01 0.01 0.01 0.01 0.01 0.02 0.02 0.01 0.02 0.02 0.02 0.02 0.02 0.03
0.01 0.01 0.01 0.01 0.01 0.02 0.01 0.01 0.01 0.01 0.01 0.01 0.00 0.01 0.00 0.00 0.00 0.00 0.01 0.01 0.01 0.01 0.01 0.01 0.01 0.01 0.01 0.01 0.01 0.01 0.01 0.01 0.01 0.01 0.02 0.02 0.02 0.02 0.03 0.02 0.02 0.02 0.02 0.03
0.01 0.01 0.01 0.01 0.01 0.01 0.01 0.01 0.01 0.01 0.01 0.01 0.00 0.01 0.00 0.00 0.00 0.00 0.00 0.00 0.00 0.01 0.01 0.01 0.02 0.02 0.02 0.01 0.01 0.02 0.02 0.02 0.02 0.02 0.03 0.03 0.03 0.03 0.04 0.03 0.03 0.02 0.03 0.03
MSLP
1017.10 1017.72 1018.27 1018.71 1018.99 1019.11 1019.06 1018.84 1018.47 1018.01 1017.47 1016.89 1016.32 1015.78 1015.29 1014.84 1014.46 1014.13 1013.86 1013.65 1013.51 1013.46 1013.50 1013.65 1013.90 1014.24 1014.66 1015.13 1015.61 1016.07 1016.49 1016.84 1017.13 1017.36 1017.56 1017.73 1017.92 1018.13 1018.37 1018.64 1018.93 1019.22 1019.50 1019.75
1016.96 1017.47 1017.90 1018.18 1018.31 1018.28 1018.10 1017.79 1017.40 1016.96 1016.51 1016.07 1015.66 1015.30 1014.96 1014.65 1014.35 1014.06 1013.77 1013.51 1013.29 1013.14 1013.10 1013.18 1013.39 1013.72 1014.17 1014.69 1015.25 1015.80 1016.31 1016.76 1017.13 1017.43 1017.68 1017.90 1018.12 1018.35 1018.60 1018.88 1019.18 1019.48 1019.77 1020.03
1016.89 1017.26 1017.52 1017.64 1017.60 1017.42 1017.12 1016.74 1016.33 1015.92 1015.55 1015.23 1014.97 1014.76 1014.57 1014.38 1014.16 1013.90 1013.61 1013.30 1013.02 1012.79 1012.66 1012.67 1012.83 1013.14 1013.59 1014.15 1014.76 1015.39 1015.98 1016.52 1016.98 1017.36 1017.69 1017.97 1018.23 1018.50 1018.79 1019.09 1019.40 1019.72 1020.02 1020.30
1016.88 1017.06 1017.12 1017.06 1016.86 1016.54 1016.14 1015.70 1015.28 1014.90 1014.60 1014.39 1014.26 1014.18 1014.11 1014.02 1013.88 1013.67 1013.39 1013.06 1012.73 1012.45 1012.26 1012.20 1012.31 1012.58 1013.01 1013.57 1014.21 1014.88 1015.53 1016.14 1016.67 1017.14 1017.54 1017.89 1018.22 1018.55 1018.88 1019.21 1019.56 1019.90 1020.23 1020.53
1016.85 1016.82 1016.69 1016.44 1016.08 1015.65 1015.17 1014.69 1014.26 1013.92 1013.69 1013.57 1013.54 1013.57 1013.61 1013.61 1013.55 1013.40 1013.15 1012.84 1012.50 1012.19 1011.95 1011.85 1011.90 1012.13 1012.52 1013.05 1013.67 1014.34 1015.02 1015.66 1016.26 1016.79 1017.26 1017.69 1018.09 1018.48 1018.87 1019.25 1019.64 1020.02 1020.38 1020.71
1016.76 1016.52 1016.20 1015.79 1015.30 1014.77 1014.23 1013.73 1013.32 1013.01 1012.84 1012.79 1012.85 1012.96 1013.09 1013.19 1013.20 1013.12 1012.93 1012.67 1012.35 1012.05 1011.80 1011.67 1011.68 1011.85 1012.18 1012.66 1013.23 1013.88 1014.54 1015.19 1015.81 1016.39 1016.92 1017.41 1017.89 1018.35 1018.80 1019.25 1019.68 1020.11 1020.51 1020.87
1016.55 1016.14 1015.66 1015.12 1014.55 1013.95 1013.39 1012.89 1012.49 1012.23 1012.10 1012.10 1012.22 1012.40 1012.60 1012.77 1012.86 1012.86 1012.76 1012.56 1012.31 1012.05 1011.83 1011.70 1011.68 1011.81 1012.08 1012.48 1012.99 1013.57 1014.19 1014.83 1015.45 1016.05 1016.62 1017.18 1017.71 1018.24 1018.76 1019.26 1019.75 1020.22 1020.66 1021.06
1016.23 1015.69 1015.11 1014.49 1013.87 1013.26 1012.69 1012.21 1011.85 1011.61 1011.52 1011.56 1011.71 1011.93 1012.17 1012.39 1012.55 1012.64 1012.62 1012.52 1012.36 1012.18 1012.01 1011.91 1011.90 1011.99 1012.22 1012.55 1012.99 1013.50 1014.07 1014.66 1015.27 1015.88 1016.48 1017.08 1017.67 1018.25 1018.83 1019.39 1019.92 1020.43 1020.91 1021.35
1015.84 1015.23 1014.59 1013.96 1013.33 1012.74 1012.21 1011.77 1011.43 1011.22 1011.15 1011.19 1011.35 1011.57 1011.83 1012.08 1012.29 1012.44 1012.52 1012.52 1012.47 1012.39 1012.31 1012.27 1012.28 1012.39 1012.58 1012.87 1013.25 1013.70 1014.21 1014.76 1015.35 1015.96 1016.58 1017.21 1017.85 1018.48 1019.10 1019.70 1020.27 1020.81 1021.31 1021.78
1015.43 1014.80 1014.18 1013.57 1012.99 1012.45 1011.97 1011.58 1011.28 1011.08 1011.00 1011.03 1011.16 1011.35 1011.59 1011.84 1012.08 1012.28 1012.43 1012.54 1012.60 1012.64 1012.66 1012.71 1012.79 1012.92 1013.12 1013.39 1013.74 1014.15 1014.63 1015.15 1015.72 1016.33 1016.97 1017.63 1018.29 1018.96 1019.61 1020.24 1020.83 1021.39 1021.90 1022.38
1015.05 1014.47 1013.90 1013.35 1012.85 1012.38 1011.98 1011.64 1011.37 1011.18 1011.08 1011.07 1011.14 1011.28 1011.47 1011.69 1011.92 1012.15 1012.37 1012.56 1012.73 1012.88 1013.02 1013.17 1013.33 1013.53 1013.77 1014.06 1014.41 1014.81 1015.28 1015.79 1016.37 1016.98 1017.63 1018.31 1019.00 1019.69 1020.36 1021.00 1021.60 1022.16 1022.68 1023.16
1014.75 1014.23 1013.74 1013.29 1012.88 1012.50 1012.17 1011.89 1011.65 1011.46 1011.34 1011.28 1011.28 1011.35 1011.47 1011.63 1011.84 1012.07 1012.32 1012.58 1012.84 1013.09 1013.35 1013.61 1013.88 1014.16 1014.46 1014.80 1015.18 1015.61 1016.09 1016.62 1017.20 1017.83 1018.50 1019.20 1019.90 1020.60 1021.28 1021.93 1022.53 1023.09 1023.60 1024.07
1014.49 1014.06 1013.66 1013.31 1012.99 1012.71 1012.45 1012.22 1012.02 1011.84 1011.69 1011.58 1011.52 1011.51 1011.56 1011.67 1011.84 1012.06 1012.32 1012.62 1012.95 1013.29 1013.65 1014.01 1014.38 1014.75 1015.14 1015.54 1015.98 1016.45 1016.96 1017.52 1018.13 1018.79 1019.47 1020.18 1020.90 1021.61 1022.29 1022.94 1023.53 1024.08 1024.58 1025.05
1014.24 1013.88 1013.57 1013.30 1013.08 1012.88 1012.69 1012.52 1012.35 1012.19 1012.03 1011.90 1011.80 1011.74 1011.74 1011.80 1011.93 1012.13 1012.40 1012.72 1013.09 1013.50 1013.93 1014.38 1014.83 1015.29 1015.76 1016.23 1016.73 1017.25 1017.81 1018.41 1019.05 1019.73 1020.43 1021.16 1021.89 1022.60 1023.29 1023.93 1024.52 1025.07 1025.57 1026.04
1013.95 1013.64 1013.39 1013.19 1013.02 1012.89 1012.77 1012.65 1012.53 1012.41 1012.28 1012.15 1012.04 1011.97 1011.95 1011.99 1012.10 1012.29 1012.56 1012.90 1013.30 1013.74 1014.22 1014.73 1015.24 1015.77 1016.30 1016.84 1017.39 1017.97 1018.57 1019.21 1019.88 1020.58 1021.31 1022.04 1022.78 1023.50 1024.19 1024.83 1025.43 1025.99 1026.50 1026.98
1013.58 1013.29 1013.05 1012.88 1012.75 1012.66 1012.59 1012.53 1012.47 1012.40 1012.33 1012.26 1012.19 1012.15 1012.16 1012.21 1012.34 1012.53 1012.81 1013.15 1013.56 1014.03 1014.54 1015.07 1015.63 1016.19 1016.77 1017.35 1017.95 1018.57 1019.21 1019.88 1020.57 1021.29 1022.03 1022.78 1023.52 1024.25 1024.95 1025.61 1026.22 1026.80 1027.33 1027.84
1013.11 1012.79 1012.54 1012.36 1012.23 1012.16 1012.13 1012.12 1012.12 1012.14 1012.15 1012.16 1012.19 1012.23 1012.30 1012.42 1012.58 1012.81 1013.11 1013.47 1013.88 1014.35 1014.87 1015.41 1015.98 1016.57 1017.17 1017.78 1018.41 1019.05 1019.72 1020.41 1021.12 1021.86 1022.61 1023.36 1024.12 1024.85 1025.57 1026.25 1026.90 1027.50 1028.08 1028.62
1012.57 1012.19 1011.88 1011.64 1011.49 1011.40 1011.39 1011.42 1011.49 1011.59 1011.71 1011.85 1011.99 1012.15 1012.33 1012.54 1012.79 1013.07 1013.40 1013.79 1014.21 1014.69 1015.20 1015.74 1016.31 1016.90 1017.51 1018.13 1018.78 1019.44 1020.12 1020.83 1021.55 1022.30 1023.06 1023.83 1024.59 1025.34 1026.08 1026.79 1027.47 1028.11 1028.73 1029.33
1012.01 1011.53 1011.13 1010.81 1010.58 1010.46 1010.44 1010.50 1010.63 1010.82 1011.05 1011.32 1011.60 1011.90 1012.22 1012.54 1012.88 1013.25 1013.63 1014.05 1014.50 1014.98 1015.49 1016.03 1016.59 1017.18 1017.79 1018.43 1019.08 1019.76 1020.46 1021.18 1021.92 1022.67 1023.44 1024.21 1024.99 1025.76 1026.51 1027.25 1027.97 1028.66 1029.32 1029.97
1011.48 1010.89 1010.36 1009.94 1009.63 1009.45 1009.39 1009.46 1009.63 1009.90 1010.24 1010.63 1011.05 1011.49 1011.94 1012.39 1012.84 1013.29 1013.75 1014.21 1014.68 1015.18 1015.70 1016.25 1016.82 1017.41 1018.04 1018.69 1019.36 1020.05 1020.77 1021.50 1022.25 1023.02 1023.79 1024.58 1025.36 1026.15 1026.92 1027.69 1028.44 1029.17 1029.87 1030.55
1011.03 1010.31 1009.67 1009.13 1008.72 1008.47 1008.37 1008.43 1008.62 1008.95 1009.36 1009.86 1010.40 1010.97 1011.54 1012.11 1012.66 1013.20 1013.72 1014.24 1014.76 1015.29 1015.83 1016.39 1016.98 1017.60 1018.25 1018.92 1019.62 1020.34 1021.08 1021.84 1022.60 1023.38 1024.17 1024.96 1025.75 1026.55 1027.34 1028.12 1028.89 1029.65 1030.38 1031.09
1010.66 1009.84 1009.08 1008.44 1007.95 1007.62 1007.48 1007.51 1007.71 1008.07 1008.54 1009.11 1009.74 1010.40 1011.08 1011.74 1012.38 1013.00 1013.59 1014.16 1014.73 1015.30 1015.88 1016.48 1017.11 1017.76 1018.44 1019.16 1019.89 1020.65 1021.42 1022.20 1022.98 1023.77 1024.57 1025.36 1026.16 1026.96 1027.76 1028.56 1029.34 1030.11 1030.86 1031.57
1010.34 1009.45 1008.62 1007.91 1007.35 1006.96 1006.78 1006.79 1006.99 1007.35 1007.86 1008.47 1009.16 1009.89 1010.63 1011.36 1012.07 1012.76 1013.41 1014.04 1014.66 1015.27 1015.90 1016.55 1017.22 1017.92 1018.65 1019.41 1020.18 1020.98 1021.78 1022.59 1023.39 1024.19 1025.00 1025.80 1026.59 1027.39 1028.19 1028.98 1029.77 1030.54 1031.29 1032.01
1010.03 1009.11 1008.25 1007.51 1006.92 1006.52 1006.32 1006.32 1006.51 1006.88 1007.40 1008.03 1008.75 1009.52 1010.30 1011.07 1011.83 1012.56 1013.26 1013.94 1014.60 1015.27 1015.95 1016.64 1017.37 1018.12 1018.89 1019.70 1020.52 1021.34 1022.17 1023.00 1023.82 1024.63 1025.44 1026.23 1027.03 1027.82 1028.61 1029.40 1030.18 1030.94 1031.69 1032.40
1009.69 1008.79 1007.96 1007.23 1006.67 1006.28 1006.09 1006.10 1006.30 1006.67 1007.20 1007.84 1008.57 1009.35 1010.15 1010.95 1011.73 1012.49 1013.23 1013.95 1014.66 1015.36 1016.09 1016.83 1017.60 1018.39 1019.21 1020.05 1020.90 1021.75 1022.60 1023.44 1024.27 1025.08 1025.88 1026.67 1027.45 1028.23 1029.01 1029.79 1030.56 1031.31 1032.04 1032.74
1009.27 1008.44 1007.68 1007.04 1006.54 1006.21 1006.06 1006.10 1006.33 1006.72 1007.25 1007.90 1008.63 1009.41 1010.22 1011.03 1011.83 1012.61 1013.37 1014.12 1014.86 1015.61 1016.37 1017.14 1017.94 1018.77 1019.61 1020.47 1021.34 1022.20 1023.06 1023.90 1024.72 1025.52 1026.31 1027.09 1027.86 1028.63 1029.39 1030.15 1030.91 1031.65 1032.37 1033.06
1008.78 1008.06 1007.43 1006.89 1006.49 1006.26 1006.19 1006.29 1006.56 1006.98 1007.53 1008.19 1008.92 1009.70 1010.51 1011.32 1012.13 1012.93 1013.71 1014.48 1015.25 1016.02 1016.80 1017.60 1018.42 1019.26 1020.12 1020.98 1021.84 1022.70 1023.55 1024.38 1025.19 1025.98 1026.75 1027.51 1028.26 1029.01 1029.76 1030.51 1031.25 1031.98 1032.69 1033.36
Thickness
5692 5700 5701 5700 5700 5701 5696 5690 5681 5687 5691 5700 5707 5710 5712 5714 5714 5714 5713 5713 5713 5711 5710 5709 5709 5709 5709 5708 5708 5707 5705 5703 5702 5702 5700 5699 5697 5695 5694 5692 5691 5689 5687 5685
5687 5696 5697 5695 5699 5701 5700 5698 5694 5694 5695 5709 5713 5711 5709 5710 5711 5710 5710 5712 5712 5711 5710 5709 5708 5708 5707 5707 5707 5706 5704 5702 5701 5700 5698 5696 5694 5693 5691 5689 5687 5685 5683 5682
5670 5683 5686 5679 5695 5697 5697 5700 5697 5689 5696 5707 5705 5706 5707 5707 5709 5709 5709 5710 5710 5711 5711 5710 5710 5710 5708 5708 5707 5705 5703 5701 5700 5698 5695 5694 5692 5689 5687 5685 5684 5682 5680 5678
5662 5669 5660 5684 5705 5706 5700 5698 5702 5701 5703 5706 5707 5708 5711 5711 5708 5708 5709 5710 5709 5710 5711 5712 5712 5711 5710 5707 5705 5703 5701 5699 5698 5696 5693 5691 5689 5686 5684 5683 5680 5678 5676 5675
5652 5653 5663 5686 5700 5701 5694 5691 5701 5700 5701 5704 5706 5704 5703 5709 5710 5710 5710 5710 5711 5712 5712 5711 5710 5710 5707 5704 5702 5700 5698 5697 5696 5694 5690 5688 5685 5683 5681 5679 5676 5674 5673 5671
5649 5649 5650 5677 5699 5707 5696 5681 5698 5699 5698 5699 5697 5684 5691 5705 5708 5709 5709 5710 5710 5710 5709 5708 5709 5708 5704 5701 5699 5698 5697 5696 5694 5692 5688 5685 5683 5681 5679 5676 5673 5671 5668 5666
5646 5646 5657 5685 5698 5697 5670 5676 5697 5697 5697 5696 5692 5693 5700 5704 5705 5706 5707 5708 5708 5708 5706 5707 5707 5705 5701 5699 5697 5698 5697 5694 5691 5689 5687 5684 5680 5678 5675 5672 5669 5665 5662 5660
5642 5641 5653 5688 5689 5680 5680 5692 5694 5694 5695 5694 5694 5697 5699 5700 5700 5701 5702 5703 5704 5703 5702 5703 5704 5701 5698 5696 5698 5696 5693 5690 5688 5686 5684 5681 5677 5674 5671 5667 5663 5659 5656 5654
5652 5656 5675 5685 5687 5690 5690 5688 5690 5690 5692 5692 5691 5691 5693 5694 5694 5696 5697 5698 5698 5698 5697 5698 5699 5698 5695 5695 5694 5692 5688 5685 5683 5681 5678 5676 5673 5669 5665 5662 5658 5654 5651 5648
5653 5663 5673 5678 5683 5687 5688 5687 5688 5689 5688 5688 5686 5686 5687 5687 5688 5689 5691 5692 5693 5692 5691 5691 5693 5694 5693 5692 5690 5687 5683 5680 5678 5674 5671 5669 5667 5664 5660 5656 5653 5650 5646 5643
5648 5660 5666 5672 5677 5680 5682 5683 5684 5684 5684 5683 5682 5680 5681 5681 5682 5683 5685 5686 5687 5686 5685 5686 5687 5687 5688 5687 5685 5681 5677 5674 5671 5669 5666 5662 5659 5657 5655 5653 5651 5647 5643 5640
5645 5657 5658 5664 5672 5676 5675 5676 5677 5676 5676 5677 5677 5675 5675 5675 5677 5677 5678 5678 5679 5679 5679 5680 5681 5680 5680 5680 5679 5675 5671 5668 5665 5662 5659 5656 5652 5648 5647 5646 5645 5643 5640 5636
5656 5662 5662 5665 5668 5671 5671 5672 5672 5672 5671 5669 5670 5670 5669 5668 5670 5671 5671 5671 5672 5672 5673 5673 5673 5673 5673 5674 5673 5670 5666 5663 5659 5656 5653 5649 5646 5643 5639 5636 5636 5634 5632 5629
5656 5657 5654 5657 5660 5664 5665 5666 5666 5665 5665 5664 5663 5663 5662 5662 5662 5662 5663 5664 5666 5666 5665 5665 5665 5665 5666 5667 5666 5663 5661 5658 5655 5651 5647 5644 5641 5638 5635 5631 5627 5624 5623 5621
5649 5651 5652 5654 5655 5656 5657 5656 5654 5653 5654 5654 5655 5654 5654 5654 5654 5655 5657 5657 5657 5657 5657 5658 5657 5658 5659 5659 5658 5656 5653 5651 5649 5646 5642 5639 5636 5633 5629 5626 5622 5618 5614 5612
5641 5644 5646 5646 5646 5647 5647 5647 5644 5644 5644 5645 5645 5646 5647 5647 5647 5648 5649 5649 5648 5648 5649 5650 5650 5652 5652 5652 5650 5648 5646 5645 5643 5639 5636 5632 5629 5626 5622 5619 5615 5611 5608 5605
5631 5632 5634 5636 5638 5639 5639 5639 5638 5637 5636 5637 5637 5638 5639 5638 5638 5638 5639 5640 5641 5642 5642 5643 5644 5645 5644 5643 5642 5640 5638 5637 5635 5632 5629 5626 5623 5620 5617 5613 5609 5606 5603 5600
5630 5631 5632 5632 5632 5631 5631 5631 5631 5630 5630 5630 5630 5630 5630 5629 5628 5628 5629 5630 5631 5631 5633 5635 5636 5636 5635 5635 5633 5632 5630 5628 5626 5624 5621 5619 5617 5614 5610 5607 5604 5600 5596 5593
5622 5623 5624 5625 5625 5624 5623 5623 5622 5622 5623 5623 5622 5622 5622 5621 5621 5620 5621 5620 5619 5620 5622 5626 5627 5627 5626 5626 5625 5623 5621 5619 5618 5616 5614 5611 5608 5606 5603 5600 5597 5593 5589 5585
5614 5615 5616 5616 5617 5615 5614 5614 5614 5614 5615 5615 5614 5613 5612 5611 5612 5611 5611 5610 5611 5612 5614 5616 5617 5617 5616 5616 5616 5614 5613 5611 5609 5607 5604 5602 5599 5597 5594 5591 5588 5584 5580 5576
5604 5605 5605 5605 5606 5606 5606 5605 5604 5604 5605 5605 5605 5604 5603 5602 5602 5603 5602 5601 5602 5604 5605 5607 5607 5607 5607 5606 5606 5604 5603 5601 5599 5598 5595 5593 5590 5588 5585 5582 5579 5575 5571 5567
5594 5595 5595 5595 5595 5594 5595 5595 5595 5595 5594 5594 5595 5595 5594 5593 5593 5593 5593 5593 5594 5596 5596 5596 5597 5598 5597 5596 5595 5594 5593 5591 5589 5588 5586 5584 5581 5578 5575 5573 5569 5566 5562 5558
5583 5584 5585 5585 5585 5584 5584 5584 5585 5585 5584 5584 5584 5584 5584 5583 5584 5584 5583 5584 5585 5587 5587 5588 5589 5588 5587 5586 5585 5584 5583 5581 5580 5578 5576 5574 5572 5569 5566 5563 5560 5556 5553 5549
5572 5573 5575 5575 5574 5573 5572 5573 5573 5574 5574 5574 5575 5575 5575 5574 5573 5574 5575 5576 5577 5578 5577 5578 5578 5578 5577 5575 5574 5573 5572 5571 5569 5568 5566 5563 5561 5559 5556 5553 5550 5546 5543 5539
5562 5562 5563 5563 5562 5562 5562 5562 5562 5562 5562 5562 5563 5564 5565 5566 5565 5565 5565 5566 5567 5567 5566 5567 5567 5567 5566 5565 5564 5563 5562 5561 5559 5557 5555 5553 5550 5548 5545 5542 5539 5536 5532 5529
5549 5550 5551 5552 5552 5552 5552 5551 5551 5550 5550 5550 5551 5553 5553 5554 5555 5555 5555 5555 5555 5556 5555 5555 5554 5554 5554 5553 5553 5552 5551 5550 5549 5547 5544 5542 5540 5537 5535 5532 5528 5525 5521 5518
5537 5538 5538 5538 5539 5539 5540 5540 5539 5539 5540 5540 5540 5541 5542 5543 5543 5544 5544 5544 5544 5544 5543 5543 5543 5542 5542 5541 5541 5540 5539 5538 5537 5535 5533 5531 5529 5527 5524 5521 5518 5514 5511 5507